K9BM Weather Reports


time (UTC)temp
C
wind
direction
speed
KPH
gust
KPH
rain 1hr
cm
rain 24hr
cm
rain mn
cm
humidity
%
barometer
mb
20260901175504 21 277 22.5 35.4 0.00 0.00 0.00 42 1007.4
20260901175004 21 277 25.7 35.4 0.00 0.00 0.00 42 1007.4
20260901174504 21 278 19.3 32.2 0.00 0.00 0.00 44 1007.5
20260901174007 21 272 20.9 32.2 0.00 0.00 0.00 44 1007.5
20260901173504 20 273 22.5 32.2 0.00 0.00 0.00 46 1007.5
20260901173005 20 270 22.5 29.0 0.00 0.00 0.00 48 1007.5
20260901172505 20 278 19.3 29.0 0.00 0.00 0.00 48 1007.6
20260901172005 20 268 19.3 32.2 0.00 0.00 0.00 49 1007.6
20260901171505 19 257 20.9 32.2 0.00 0.00 0.00 49 1007.6
20260901171004 19 255 20.9 32.2 0.00 0.00 0.00 50 1007.7
20260901170005 18 257 20.9 32.2 0.00 0.00 0.00 49 1007.7
20260901165504 18 255 19.3 24.1 0.00 0.00 0.00 47 1007.6
20260901165004 18 262 14.5 22.5 0.00 0.00 0.00 45 1007.7
20260901164504 18 243 11.3 19.3 0.00 0.00 0.00 46 1007.7
20260901164004 18 255 14.5 19.3 0.00 0.00 0.00 45 1007.6
20260901163504 18 273 11.3 19.3 0.00 0.00 0.00 44 1007.5
20260901162504 18 245 16.1 22.5 0.00 0.00 0.00 43 1007.4
20260901161505 17 242 16.1 22.5 0.00 0.00 0.00 45 1007.4
20260901161005 17 261 14.5 19.3 0.00 0.00 0.00 42 1007.4
20260901160004 16 253 14.5 24.1 0.00 0.00 0.00 43 1007.4
20260901155005 15 250 17.7 22.5 0.00 0.00 0.00 47 1007.4
20260901154505 14 264 16.1 19.3 0.00 0.00 0.00 50 1007.5
20260901154005 14 275 8.0 12.9 0.00 0.00 0.00 50 1007.6
20260901153004 16 240 4.8 20.9 0.00 0.00 0.00 53 1007.9
20260901151504 16 275 14.5 20.9 0.00 0.00 0.00 49 1007.3
20260901151004 16 274 9.7 14.5 0.00 0.00 0.00 44 1007.5
20260901150005 16 247 9.7 16.1 0.00 0.00 0.00 44 1007.8
20260901145505 15 248 11.3 16.1 0.00 0.00 0.00 44 1008.0
20260901145004 15 246 11.3 16.1 0.00 0.00 0.00 44 1007.9
20260901144505 15 259 11.3 14.5 0.00 0.00 0.00 45 1007.9
20260901143504 15 244 8.0 9.7 0.00 0.00 0.00 48 1008.1
20260901143004 14 237 8.0 9.7 0.00 0.00 0.00 49 1008.1
20260901142504 14 227 4.8 8.0 0.00 0.00 0.00 49 1008.1
20260901142005 13 226 4.8 9.7 0.00 0.00 0.00 50 1008.0
20260901141504 13 224 8.0 11.3 0.00 0.00 0.00 50 1008.1
20260901141004 13 206 4.8 11.3 0.00 0.00 0.00 51 1008.1
20260901140005 13 200 0.0 0.0 0.00 0.00 0.00 53 1008.1
20260901135511 13 200 0.0 0.0 0.00 0.00 0.00 52 1008.1
20260901134505 13 201 0.0 0.0 0.00 0.00 0.00 53 1008.0
20260901134004 12 200 0.0 0.0 0.00 0.00 0.00 55 1007.9
20260901133004 12 199 0.0 4.8 0.00 0.00 0.00 54 1007.9
20260901132504 12 199 3.2 4.8 0.00 0.00 0.00 55 1007.8
20260901132004 12 199 0.0 1.6 0.00 0.00 0.00 54 1007.8
20260901131504 11 199 0.0 1.6 0.00 0.00 0.00 56 1007.7
20260901131004 11 199 0.0 4.8 0.00 0.00 0.00 58 1007.5
20260901130004 11 199 3.2 11.3 0.00 0.00 0.00 56 1007.5
20260901125504 11 197 8.0 11.3 0.00 0.00 0.00 56 1007.5
20260901125004 12 194 8.0 9.7 0.00 0.00 0.00 54 1007.5
20260901124505 12 200 4.8 8.0 0.00 0.00 0.00 53 1007.5
20260901124005 12 201 0.0 1.6 0.00 0.00 0.00 51 1007.5
20260901123005 11 201 1.6 8.0 0.00 0.00 0.00 55 1007.4
20260901122505 11 201 4.8 8.0 0.00 0.00 0.00 57 1007.5
20260901121505 11 201 4.8 14.5 0.00 0.00 0.00 57 1007.6
20260901121005 11 198 11.3 14.5 0.00 0.00 0.00 57 1007.6
20260901120005 11 197 8.0 9.7 0.00 0.00 0.00 58 1007.5
20260901114504 11 199 3.2 4.8 0.00 0.00 0.00 56 1007.5
20260901114005 11 198 3.2 4.8 0.00 0.00 0.00 56 1007.4
20260901113505 11 198 3.2 4.8 0.00 0.00 0.00 58 1007.5
20260901113004 10 198 3.2 8.0 0.00 0.00 0.00 59 1007.5
20260901112504 10 198 3.2 9.7 0.00 0.00 0.00 59 1007.6
20260901112004 10 197 8.0 9.7 0.00 0.00 0.00 59 1007.7
20260901111504 10 199 8.0 9.7 0.00 0.00 0.00 59 1007.8
20260901111004 10 198 8.0 11.3 0.00 0.00 0.00 59 1007.8
20260901105504 10 198 6.4 9.7 0.00 0.00 0.00 59 1007.9
20260901105004 11 197 6.4 9.7 0.00 0.00 0.00 58 1007.9
20260901104504 11 211 4.8 4.8 0.00 0.00 0.00 57 1007.8
20260901104004 11 216 4.8 4.8 0.00 0.00 0.00 55 1007.9
20260901103504 11 270 3.2 4.8 0.00 0.00 0.00 54 1007.9
20260901103005 12 270 1.6 4.8 0.00 0.00 0.00 54 1008.0
20260901102505 12 270 1.6 4.8 0.00 0.00 0.00 54 1008.0
20260901102004 12 270 3.2 4.8 0.00 0.00 0.00 54 1008.1
20260901100004 11 270 1.6 4.8 0.00 0.00 0.00 56 1008.1
20260901095505 11 270 3.2 4.8 0.00 0.00 0.00 54 1008.1
20260901094504 11 273 4.8 9.7 0.00 0.00 0.00 55 1008.1
20260901094005 11 282 0.0 0.0 0.00 0.00 0.00 55 1008.2
20260901093504 11 297 0.0 0.0 0.00 0.00 0.00 54 1008.3
20260901093005 11 298 0.0 0.0 0.00 0.00 0.00 53 1008.1
20260901092504 12 354 0.0 0.0 0.00 0.00 0.00 52 1008.1
20260901092004 12 353 0.0 0.0 0.00 0.00 0.00 53 1008.1
20260901091504 12 359 0.0 0.0 0.00 0.00 0.00 53 1008.1
20260901091005 12 359 0.0 0.0 0.00 0.00 0.00 55 1008.1
20260901090004 11 359 0.0 0.0 0.00 0.00 0.00 55 1008.1
20260901085505 12 359 0.0 0.0 0.00 0.00 0.00 55 1008.1
20260901085004 12 359 0.0 0.0 0.00 0.00 0.00 55 1008.2
20260901084005 12 359 0.0 0.0 0.00 0.00 0.00 54 1008.1
20260901083505 12 359 0.0 1.6 0.00 0.00 0.00 53 1008.1
20260901082504 12 359 1.6 4.8 0.00 0.00 0.00 53 1008.1
20260901082004 12 359 3.2 9.7 0.00 0.00 0.00 53 1008.1
20260901081504 12 6 4.8 11.3 0.00 0.00 0.00 53 1008.1
20260901081004 13 0 8.0 16.1 0.00 0.00 0.00 52 1008.1
20260901080004 13 347 8.0 12.9 0.00 0.00 0.00 51 1008.1
20260901075504 13 14 4.8 12.9 0.00 0.00 0.00 51 1008.1
20260901075004 13 15 6.4 12.9 0.00 0.00 0.00 50 1008.2
20260901074504 13 25 4.8 11.3 0.00 0.00 0.00 50 1008.1
20260901074004 13 13 3.2 8.0 0.00 0.00 0.00 49 1008.1
20260901073505 13 10 3.2 4.8 0.00 0.00 0.00 48 1008.3
20260901073005 13 343 0.0 4.8 0.00 0.00 0.00 48 1008.3
20260901072504 14 343 0.0 4.8 0.00 0.00 0.00 48 1008.4
20260901072005 14 343 4.8 9.7 0.00 0.00 0.00 47 1008.3
20260901071504 14 308 4.8 9.7 0.00 0.00 0.00 46 1008.3
20260901070005 13 198 0.0 0.0 0.00 0.00 0.00 44 1008.4
20260901065504 13 199 0.0 4.8 0.00 0.00 0.00 46 1008.4
20260901064004 13 199 3.2 4.8 0.00 0.00 0.00 45 1008.4
20260901063504 13 198 3.2 4.8 0.00 0.00 0.00 47 1008.4
20260901063004 14 198 3.2 4.8 0.00 0.00 0.00 47 1008.4
20260901062504 13 199 1.6 8.0 0.00 0.00 0.00 46 1008.4
20260901062004 14 198 4.8 8.0 0.00 0.00 0.00 47 1008.5
20260901061007 14 197 8.0 11.3 0.00 0.00 0.00 46 1008.5
20260901060004 14 174 6.4 9.7 0.00 0.00 0.00 46 1008.4
20260901055004 15 89 0.0 0.0 0.00 0.00 0.00 43 1008.3
20260901054505 16 84 0.0 0.0 0.00 0.00 0.00 39 1008.4
20260901053504 16 82 0.0 0.0 0.00 0.00 0.00 36 1008.4
20260901053004 16 82 0.0 0.0 0.00 0.00 0.00 36 1008.5
20260901052505 16 82 0.0 0.0 0.00 0.00 0.00 36 1008.5
20260901052004 17 82 0.0 0.0 0.00 0.00 0.00 35 1008.5
20260901051504 17 82 0.0 0.0 0.00 0.00 0.00 35 1008.6
20260901051004 17 83 0.0 0.0 0.00 0.00 0.00 33 1008.7
20260901050004 17 83 0.0 4.8 0.00 0.00 0.00 31 1008.8
20260901045005 17 83 1.6 8.0 0.00 0.00 0.00 32 1008.9
20260901044506 17 84 0.0 11.3 0.00 0.00 0.00 32 1008.9
20260901044004 17 83 4.8 11.3 0.00 0.00 0.00 32 1008.9
20260901043504 18 54 4.8 8.0 0.00 0.00 0.00 32 1008.9
20260901043004 18 145 3.2 12.9 0.00 0.00 0.00 31 1008.9
20260901042004 18 151 9.7 19.3 0.00 0.00 0.00 30 1008.8
20260901041504 18 157 12.9 19.3 0.00 0.00 0.00 30 1008.7
20260901041004 18 155 12.9 19.3 0.00 0.00 0.00 30 1008.7
20260901035004 18 155 14.5 19.3 0.00 0.00 0.00 30 1008.8
20260901034504 18 156 14.5 19.3 0.00 0.00 0.00 30 1008.8
20260901034004 18 154 14.5 19.3 0.00 0.00 0.00 30 1008.8
20260901033504 19 153 16.1 20.9 0.00 0.00 0.00 30 1008.8
20260901033004 19 153 12.9 20.9 0.00 0.00 0.00 30 1008.8
20260901032504 19 149 14.5 19.3 0.00 0.00 0.00 30 1008.9
20260901032004 19 149 11.3 19.3 0.00 0.00 0.00 30 1008.8
20260901031504 19 151 14.5 19.3 0.00 0.00 0.00 30 1008.8
20260901031004 19 151 11.3 19.3 0.00 0.00 0.00 30 1008.7
20260901030004 19 147 11.3 16.1 0.00 0.00 0.00 30 1008.6
20260901025504 19 148 11.3 16.1 0.00 0.00 0.00 30 1008.7
20260901025005 19 146 11.3 16.1 0.00 0.00 0.00 30 1008.6
20260901024005 19 144 11.3 16.1 0.00 0.00 0.00 31 1008.5
20260901023504 20 140 12.9 19.3 0.00 0.00 0.00 29 1008.3
20260901023005 20 136 12.9 19.3 0.00 0.00 0.00 28 1008.3
20260901022504 20 135 14.5 19.3 0.00 0.00 0.00 28 1008.4
20260901022004 20 135 16.1 19.3 0.00 0.00 0.00 27 1008.4
20260901021504 20 139 14.5 19.3 0.00 0.00 0.00 28 1008.4
20260901021004 20 136 14.5 16.1 0.00 0.00 0.00 28 1008.3
20260901020004 21 130 12.9 16.1 0.00 0.00 0.00 27 1008.2
20260901015504 22 127 12.9 19.3 0.00 0.00 0.00 25 1008.3
20260901015005 22 125 12.9 20.9 0.00 0.00 0.00 25 1008.2
20260901014504 22 123 16.1 20.9 0.00 0.00 0.00 25 1008.4
20260901014004 22 121 14.5 20.9 0.00 0.00 0.00 25 1008.5
20260901013504 23 116 16.1 20.9 0.00 0.00 0.00 25 1008.4
20260901013004 23 112 17.7 20.9 0.00 0.00 0.00 25 1008.3
20260901012504 23 111 16.1 20.9 0.00 0.00 0.00 25 1008.3
20260901012004 23 114 12.9 19.3 0.00 0.00 0.00 25 1008.3
20260901011504 24 114 14.5 20.9 0.00 0.00 0.00 24 1008.3
20260901011004 24 105 14.5 20.9 0.00 0.00 0.00 23 1008.2
20260901010004 25 97 14.5 22.5 0.00 0.00 0.00 22 1008.2
20260901005504 25 96 14.5 22.5 0.00 0.00 0.00 22 1008.2
20260901004504 25 97 14.5 20.9 0.00 0.00 0.00 21 1008.2
20260901003503 26 97 14.5 20.9 0.00 0.00 0.00 20 1008.2
20260901003004 26 96 12.9 19.3 0.00 0.00 0.00 19 1008.2
20260901002503 26 98 11.3 16.1 0.00 0.00 0.00 18 1008.3
20260901001504 26 105 14.5 25.7 0.00 0.00 0.00 18 1008.4
20260901001004 26 76 12.9 19.3 0.00 0.00 0.00 18 1008.4
20260901000004 26 63 6.4 19.3 0.00 0.00 0.00 18 1008.4
20260831235504 26 57 9.7 19.3 0.00 0.00 0.00 18 1008.5
20260831234504 26 69 11.3 20.9 0.00 0.00 0.00 18 1008.6
20260831234004 26 80 8.0 20.9 0.00 0.00 0.00 17 1008.6
20260831233004 26 71 6.4 19.3 0.00 0.00 0.00 17 1008.6
20260831232004 26 60 1.6 4.8 0.00 0.00 0.00 17 1008.7
20260831231004 26 62 4.8 12.9 0.00 0.00 0.00 16 1008.8
20260831230004 27 108 4.8 14.5 0.00 0.00 0.00 16 1008.9
20260831225004 27 136 6.4 14.5 0.00 0.00 0.00 16 1009.0
20260831224504 27 140 8.0 14.5 0.00 0.00 0.00 16 1009.1
20260831223503 27 116 4.8 19.3 0.00 0.00 0.00 16 1009.1
20260831222506 26 166 14.5 22.5 0.00 0.00 0.00 17 1009.1
20260831222006 26 148 11.3 19.3 0.00 0.00 0.00 17 1009.1
20260831221506 26 27 8.0 14.5 0.00 0.00 0.00 18 1009.2
20260831221007 26 12 3.2 12.9 0.00 0.00 0.00 17 1009.3
20260831220006 26 48 3.2 11.3 0.00 0.00 0.00 17 1009.4
20260831215506 26 310 1.6 14.5 0.00 0.00 0.00 16 1009.4
20260831215006 26 285 8.0 14.5 0.00 0.00 0.00 18 1009.6
20260831214506 26 44 6.4 11.3 0.00 0.00 0.00 16 1009.6
20260831214006 26 136 1.6 19.3 0.00 0.00 0.00 17 1009.7
20260831213505 25 136 3.2 20.9 0.00 0.00 0.00 16 1009.8
20260831213006 25 167 11.3 20.9 0.00 0.00 0.00 17 1009.9
20260831212506 25 320 6.4 22.5 0.00 0.00 0.00 18 1010.0
20260831212006 24 233 11.3 22.5 0.00 0.00 0.00 18 1010.1
20260831211506 24 339 14.5 22.5 0.00 0.00 0.00 18 1010.2
20260831211006 24 317 12.9 20.9 0.00 0.00 0.00 18 1010.2
20260831210006 24 347 6.4 22.5 0.00 0.00 0.00 17 1010.4
20260831205506 24 293 14.5 22.5 0.00 0.00 0.00 18 1010.4
20260831205005 24 288 9.7 20.9 0.00 0.00 0.00 18 1010.4
20260831204506 24 246 1.6 19.3 0.00 0.00 0.00 18 1010.5
20260831204006 23 284 4.8 19.3 0.00 0.00 0.00 18 1010.7
20260831203506 24 274 12.9 22.5 0.00 0.00 0.00 18 1010.8
20260831203006 24 285 12.9 24.1 0.00 0.00 0.00 19 1010.8
20260831202506 24 281 14.5 24.1 0.00 0.00 0.00 18 1010.8
20260831202006 24 286 16.1 24.1 0.00 0.00 0.00 18 1010.8
20260831195506 23 271 19.3 27.4 0.00 0.00 0.00 17 1011.1
20260831194505 23 271 12.9 20.9 0.00 0.00 0.00 19 1011.2
20260831193506 23 270 6.4 32.2 0.00 0.00 0.00 18 1011.3
20260831192006 22 279 14.5 25.7 0.00 0.00 0.00 19 1011.6
20260831191506 22 260 20.9 25.7 0.00 0.00 0.00 18 1011.6
20260831191006 22 241 11.3 25.7 0.00 0.00 0.00 20 1011.6
20260831190006 22 263 16.1 24.1 0.00 0.00 0.00 20 1011.7
20260831185506 22 264 16.1 32.2 0.00 0.00 0.00 21 1011.7
20260831185006 21 254 16.1 32.2 0.00 0.00 0.00 21 1011.8
20260831184006 21 245 16.1 27.4 0.00 0.00 0.00 21 1011.8
20260831183006 21 251 16.1 32.2 0.00 0.00 0.00 22 1012.0
20260831182505 21 245 20.9 32.2 0.00 0.00 0.00 22 1012.1
20260831181506 21 245 16.1 29.0 0.00 0.00 0.00 23 1012.1
20260831181006 21 266 19.3 29.0 0.00 0.00 0.00 23 1012.2
20260831180006 20 258 14.5 25.7 0.00 0.00 0.00 24 1012.2